CAPE
0 2 3 0 0 0 0 0 0 0 0 0 0 0 0 0 0 0 0 0 0 0 0 0 0 0 336 1038 1722 1645 1651 1602 1864 1701 1526 1550 1278 1182 1048 1345 1125 1504 1337 1468
21 15 0 0 0 0 0 0 0 0 0 0 0 0 0 0 0 0 0 0 0 0 0 0 0 0 45 645 1725 1951 1798 1601 1741 1727 1544 1483 1258 1300 1132 1133 1012 1203 1363 1271
21 0 0 0 0 0 0 0 0 0 0 2 0 0 0 0 0 0 0 0 0 0 0 0 0 0 0 317 1699 1935 1947 1731 1660 1635 1537 1330 1417 1137 1093 992 963 1026 1449 1339
9 14 0 0 0 0 0 0 0 0 0 0 0 3 0 0 0 0 0 0 0 0 0 0 0 0 0 7 986 2013 1982 1913 1818 1762 1553 1244 1158 1023 1060 952 869 829 1225 1208
1 6 17 14 0 0 0 0 0 0 0 0 0 27 0 0 0 0 0 0 0 0 0 0 0 0 0 0 52 1300 2040 2013 1909 1840 1615 1457 1211 1152 1192 974 878 801 921 956
0 0 1 0 1 2 0 0 3 5 5 14 0 1 0 0 0 0 0 0 0 0 0 0 0 0 0 0 0 85 1406 2198 2089 1918 1762 1513 1432 1644 1499 1100 911 747 722 713
0 1 0 0 1 0 0 12 5 6 11 6 0 0 0 0 0 0 0 0 0 0 0 0 0 0 0 0 0 0 100 1604 2180 2194 1890 1927 1877 1915 1636 1158 953 772 721 763
5 0 0 0 2 1 0 8 9 0 0 0 0 1 0 0 0 0 0 0 0 0 0 0 0 0 0 0 0 0 0 349 1731 2379 2389 2080 2224 1982 1746 1178 985 807 938 1181
10 8 5 0 0 3 0 0 0 4 19 18 8 0 0 0 0 0 0 0 0 0 0 0 0 0 0 0 0 0 0 42 721 1889 2645 2394 2415 2203 1909 1207 1241 948 852 678
0 0 0 6 11 6 20 3 0 3 0 1 0 0 0 0 0 0 0 0 0 0 0 0 0 0 0 0 0 0 33 349 532 1354 2447 2706 2415 2402 1910 1276 1084 660 353 485
0 0 2 0 8 0 2 1 3 0 0 0 0 0 0 0 0 0 0 0 0 0 0 0 0 0 0 0 0 33 116 316 639 814 2109 2769 2472 2395 1750 1154 545 345 271 241
0 0 0 0 10 19 2 1 3 0 0 0 0 0 0 0 0 0 0 0 0 0 0 0 0 0 0 0 0 185 185 278 262 875 2188 2634 2530 2000 1555 814 274 173 125 39
0 0 0 0 0 0 1 0 1 0 0 0 0 0 0 0 0 3 0 0 0 0 0 0 0 0 0 0 0 149 969 949 898 1024 2006 2274 2012 1523 1109 506 134 73 28 0
0 0 0 0 0 0 0 0 0 1 0 0 0 0 15 0 0 0 0 0 0 0 0 0 0 0 0 0 35 446 1345 1358 1459 1715 1599 1536 1118 985 496 116 20 3 1 0
1 0 0 0 0 0 0 0 0 0 1 0 0 1 17 0 0 0 0 0 0 0 0 0 0 0 0 4 27 598 599 584 699 875 788 811 301 113 41 12 1 0 0 0
0 1 0 0 0 0 0 0 0 0 0 0 0 0 0 0 0 0 0 0 0 0 0 0 0 0 0 0 1 308 65 63 25 119 179 35 3 1 1 2 0 0 0 0
4 3 1 0 0 0 0 0 0 0 0 0 0 0 0 0 1 0 0 0 0 0 0 0 0 0 0 0 0 255 0 0 1 0 1 1 1 1 2 0 0 0 0 0
0 3 2 0 1 0 0 0 0 0 0 0 0 0 0 0 0 0 0 0 0 0 0 1 0 0 0 0 0 0 0 0 0 1 1 1 2 2 1 0 0 0 0 0
0 0 1 0 0 0 0 0 0 0 0 0 0 0 0 0 0 0 0 0 0 0 0 0 2 0 0 0 0 0 0 0 0 0 0 1 1 1 1 0 0 0 0 0
5 3 2 2 1 0 0 0 0 0 0 0 0 0 0 0 0 0 0 0 0 0 0 0 0 0 0 0 0 0 0 0 0 0 0 0 0 0 0 0 0 0 0 0
0 3 0 0 4 1 0 0 0 0 0 0 0 0 0 0 0 0 0 0 0 0 0 0 0 2 10 3 0 0 0 0 0 0 0 0 0 0 0 0 0 0 0 0
1 6 1 1 6 0 0 0 0 0 0 0 0 0 0 0 0 0 0 0 0 0 0 0 0 0 0 0 0 0 0 0 0 0 0 0 0 0 0 0 0 0 0 0
10 0 0 0 0 0 0 0 0 0 0 0 0 0 0 0 0 0 0 0 0 0 0 0 0 0 0 0 0 0 0 0 0 0 0 0 0 0 0 0 0 1 0 0
0 25 23 33 0 0 0 0 6 0 0 0 3 0 0 0 0 0 0 0 0 2 0 0 0 0 0 0 0 0 0 0 0 0 0 0 0 0 0 1 0 1 1 0
2 9 3 1 0 6 4 7 11 0 0 0 0 0 0 0 0 0 0 0 0 0 0 0 0 0 0 0 0 6 6 3 0 0 0 0 0 0 1 1 1 0 0 0
0 0 2 0 18 39 6 1 16 24 14 0 0 0 0 0 0 0 0 0 0 0 0 0 0 0 0 0 0 0 24 5 0 0 0 0 0 0 0 1 0 0 0 0
CIN
-0 -0 -0 -0 -0 -0 -0 -0 -0 -0 -0 -0 -0 -0 -0 -0 -0 -0 -0 -0 -0 -0 -0 -0 -0 -0 -15 -22 -58 -111 -148 -156 -128 -133 -133 -102 -148 -160 -127 -137 -160 -133 -143 -86
-2 -4 -0 -0 -0 -0 -0 -0 -0 -0 -0 -0 -0 -0 -0 -0 -0 -0 -0 -0 -0 -0 -0 -0 -0 -0 -28 -24 -40 -88 -147 -189 -164 -160 -188 -145 -161 -132 -151 -118 -165 -131 -149 -126
-0 -1 -0 -0 -0 -0 -0 -0 -0 -0 -0 -1 -0 -0 -0 -0 -0 -0 -0 -0 -0 -0 -0 -0 -0 -0 -0 -37 -35 -75 -136 -197 -217 -208 -146 -125 -73 -100 -109 -127 -141 -147 -141 -134
-0 -1 -0 -0 -0 -0 -0 -0 -0 -0 -0 -0 -0 -1 -0 -0 -0 -0 -0 -0 -0 -0 -0 -0 -0 -0 -0 -74 -46 -48 -97 -145 -203 -170 -142 -180 -168 -206 -223 -187 -174 -168 -135 -133
-0 -0 -0 -0 -0 -0 -0 -0 -0 -0 -0 -0 -0 -18 -0 -0 -0 -0 -0 -0 -0 -0 -0 -0 -0 -0 -0 -59 -114 -55 -47 -68 -134 -157 -167 -163 -153 -164 -152 -151 -172 -174 -161 -158
-0 -0 -0 -0 -1 -1 -0 -1 -12 -3 -3 -3 -0 -35 -0 -0 -0 -0 -0 -0 -0 -0 -0 -0 -0 -0 -0 -0 -0 -104 -45 -16 -52 -134 -131 -127 -143 -98 -67 -136 -173 -202 -209 -197
-0 -0 -0 -0 -0 -0 -0 -5 -14 -15 -15 -30 -0 -0 -0 -0 -0 -0 -0 -0 -0 -0 -0 -0 -0 -0 -0 -0 -0 -0 -129 -47 -23 -31 -138 -75 -85 -51 -44 -139 -191 -227 -236 -213
-0 -0 -0 -0 -0 -0 -0 -1 -7 -2 -0 -0 -0 -0 -0 -0 -0 -0 -0 -0 -0 -0 -0 -0 -0 -0 -0 -0 -0 -0 -0 -95 -49 -12 -59 -105 -58 -52 -18 -88 -172 -247 -255 -188
-4 -12 -1 -1 -0 -1 -0 -0 -0 -3 -4 -7 -3 -0 -0 -0 -0 -0 -0 -0 -0 -0 -0 -0 -0 -0 -0 -0 -0 -0 -0 -245 -86 -57 -23 -87 -48 -44 -14 -41 -140 -278 -267 -276
-0 -0 -0 -2 -0 -0 -0 -1 -0 -0 -0 -7 -1 -0 -0 -0 -0 -0 -0 -0 -0 -0 -0 -0 -0 -0 -0 -0 -0 -0 -219 -159 -86 -59 -14 -30 -55 -34 -17 -51 -181 -317 -363 -295
-0 -0 -4 -0 -0 -0 -0 -0 -0 -0 -0 -1 -0 -0 -0 -0 -0 -0 -0 -0 -0 -0 -0 -0 -0 -0 -0 -0 -0 -231 -195 -181 -77 -52 -14 -12 -11 -5 -30 -104 -268 -328 -337 -310
-0 -0 -0 -2 -11 -1 -0 -0 -0 -0 -0 -0 -0 -0 -0 -0 -0 -0 -0 -0 -20 -0 -0 -0 -0 -0 -0 -0 -0 -173 -177 -192 -118 -52 -11 -16 -2 -21 -60 -159 -289 -328 -353 -404
-0 -0 -0 -0 -0 -0 -0 -0 -0 -0 -0 -0 -0 -0 -0 -16 -6 -18 -0 -0 -0 -0 -0 -0 -0 -0 -0 -0 -0 -83 -61 -75 -57 -34 -7 -12 -26 -64 -123 -202 -300 -371 -456 -0
-10 -0 -0 -0 -0 -0 -0 -0 -0 -0 -0 -0 -0 -0 -5 -0 -0 -0 -0 -0 -0 -0 -0 -0 -0 -0 -0 -0 -126 -47 -50 -86 -69 -50 -69 -57 -119 -125 -212 -327 -388 -278 -277 -0
-0 -0 -0 -0 -0 -0 -0 -0 -0 -0 -0 -0 -0 -2 -23 -0 -0 -0 -0 -0 -0 -0 -0 -0 -0 -0 -0 -248 -184 -114 -183 -173 -145 -104 -106 -115 -223 -288 -356 -403 -0 -0 -0 -0
-0 -1 -0 -0 -0 -0 -0 -0 -0 -0 -0 -0 -0 -0 -0 -0 -0 -0 -0 -0 -0 -0 -0 -0 -0 -0 -0 -0 -176 -165 -275 -291 -319 -239 -224 -262 -0 -0 -0 -0 -0 -0 -0 -0
-3 -0 -2 -0 -0 -0 -0 -0 -0 -0 -0 -0 -0 -0 -0 -0 -1 -0 -0 -0 -0 -0 -0 -0 -0 -0 -0 -0 -0 -78 -0 -2 -0 -0 -0 -0 -0 -0 -0 -0 -0 -0 -0 -0
-0 -6 -5 -0 -6 -0 -0 -0 -0 -0 -0 -0 -0 -0 -0 -0 -0 -0 -0 -0 -0 -0 -0 -3 -0 -0 -0 -0 -0 -0 -0 -0 -0 -0 -0 -0 -0 -0 -0 -0 -0 -0 -0 -0
-0 -0 -2 -0 -1 -0 -0 -0 -0 -0 -0 -0 -0 -0 -0 -0 -0 -0 -0 -0 -0 -0 -0 -0 -5 -0 -0 -0 -0 -0 -0 -0 -0 -0 -0 -0 -0 -0 -0 -0 -0 -0 -0 -0
-4 -3 -5 -3 -2 -0 -0 -0 -0 -0 -0 -0 -0 -0 -0 -0 -0 -0 -0 -0 -0 -0 -0 -0 -0 -9 -0 -0 -0 -0 -0 -0 -0 -0 -0 -0 -0 -0 -0 -0 -0 -0 -0 -0
-1 -4 -0 -0 -1 -1 -0 -0 -0 -0 -0 -0 -0 -0 -0 -0 -0 -0 -0 -0 -0 -0 -0 -0 -0 -1 -0 -21 -0 -0 -0 -0 -0 -0 -0 -0 -0 -0 -0 -0 -0 -0 -0 -0
-3 -5 -1 -1 -0 -0 -0 -0 -0 -0 -0 -0 -0 -0 -0 -0 -0 -0 -0 -0 -0 -0 -0 -0 -0 -0 -0 -0 -0 -0 -0 -0 -0 -0 -0 -0 -0 -0 -0 -0 -0 -0 -0 -0
-20 -1 -0 -0 -0 -0 -0 -0 -0 -0 -0 -0 -0 -0 -0 -0 -0 -0 -0 -0 -0 -0 -0 -0 -0 -0 -0 -0 -0 -0 -0 -0 -0 -0 -0 -0 -0 -0 -0 -0 -0 -0 -0 -0
-0 -5 -12 -14 -0 -0 -0 -0 -6 -0 -0 -0 -3 -0 -0 -0 -0 -0 -0 -0 -0 -13 -0 -0 -0 -0 -0 -0 -0 -0 -0 -8 -0 -0 -0 -0 -0 -0 -0 -0 -0 -0 -0 -0
-1 -9 -10 -5 -0 -12 -3 -2 -4 -0 -0 -0 -0 -0 -0 -0 -0 -0 -0 -0 -0 -0 -0 -0 -0 -0 -0 -0 -0 -30 -56 -61 -0 -0 -0 -0 -0 -0 -0 -0 -0 -0 -0 -0
-0 -0 -15 -0 -11 -4 -11 -15 -12 -6 -4 -0 -0 -0 -0 -0 -0 -0 -0 -0 -0 -0 -0 -0 -0 -0 -0 -0 -0 -0 -33 -61 -0 -0 -0 -0 -0 -0 -0 -0 -0 -0 -0 -0
Wind_Speed
55 54 57 56 56 54 52 50 49 50 43 40 48 42 35 29 40 34 28 22 21 19 17 16 16 14 14 12 15 17 16 16 15 15 15 14 14 13 14 10 10 9 9 10
59 62 56 53 53 55 58 57 54 50 45 47 48 45 43 37 34 36 40 27 25 19 18 18 17 18 16 15 17 17 18 18 18 17 16 14 14 12 13 13 11 10 10 11
67 59 57 54 55 54 58 56 56 54 44 43 44 54 47 37 43 42 38 36 26 23 20 18 20 20 19 17 18 18 18 19 19 18 16 16 13 13 13 13 12 12 11 10
58 59 63 61 63 56 58 55 53 53 53 53 44 50 45 46 41 41 40 37 29 26 24 20 19 18 21 22 19 19 18 19 19 19 18 20 19 18 16 15 14 13 12 11
41 50 64 66 66 58 62 50 51 55 53 51 54 45 52 43 41 40 41 45 34 29 24 24 21 21 18 20 22 20 21 21 21 22 21 20 20 19 16 15 15 14 13 12
40 44 46 60 58 60 59 55 54 52 52 61 54 53 60 45 41 37 38 38 38 32 30 30 25 23 23 20 24 23 23 24 23 24 23 22 22 20 19 18 17 15 14 12
54 50 48 49 56 58 53 56 62 62 63 57 53 56 61 38 38 41 43 37 32 33 33 32 31 30 26 24 26 26 25 25 26 26 26 24 23 23 22 22 20 17 15 14
56 55 42 40 54 57 56 54 56 61 57 59 48 53 52 56 41 36 36 38 40 34 30 29 30 32 31 29 27 28 29 28 27 27 27 26 24 25 25 24 22 20 17 15
47 46 32 36 42 52 58 56 53 51 52 50 48 47 67 63 59 61 52 36 36 38 35 27 30 30 25 27 27 26 28 30 29 29 28 28 26 24 27 25 23 21 18 16
39 53 50 36 33 43 53 47 47 55 54 56 52 44 55 44 48 41 33 35 45 41 35 31 32 33 30 28 26 24 25 27 27 27 28 27 28 25 25 25 25 22 20 17
33 41 36 37 45 45 40 50 52 44 44 51 54 51 51 45 42 39 42 41 30 26 28 30 30 29 27 25 23 23 23 23 24 28 27 27 27 25 23 25 24 23 21 18
27 37 45 36 33 38 40 44 48 50 46 46 52 41 24 33 39 33 33 32 30 26 25 24 25 28 24 23 23 21 21 21 22 24 26 26 26 24 23 24 23 22 21 19
25 33 42 38 34 22 30 29 32 36 41 52 49 47 38 27 20 12 11 10 14 13 12 15 17 16 18 21 22 19 18 18 19 19 21 23 24 24 23 23 22 20 20 19
23 32 39 47 38 31 32 33 30 31 37 38 55 48 24 19 20 18 8 13 14 12 13 13 11 16 21 22 23 18 15 19 18 17 19 21 22 22 22 21 21 20 19 19
22 31 36 39 39 38 35 35 34 35 35 35 30 47 43 24 25 22 18 12 13 13 15 18 19 19 19 18 21 19 19 18 18 16 18 20 21 20 20 20 19 19 19 18
24 30 31 40 43 42 44 40 36 37 38 39 41 41 40 34 30 30 23 19 18 20 19 16 20 17 18 16 17 15 16 18 19 18 18 17 19 20 20 19 19 19 18 18
32 28 30 38 31 35 47 50 46 42 41 40 45 42 36 31 31 35 29 26 25 23 23 19 18 17 15 13 14 11 11 13 17 18 19 18 18 19 19 19 18 18 18 17
36 34 31 38 35 48 39 27 30 35 38 40 42 41 41 41 38 35 32 31 28 27 27 21 18 18 17 15 13 13 8 9 15 19 19 19 19 20 21 20 20 19 18 18
39 36 34 37 39 42 44 38 36 37 45 39 40 41 41 41 43 44 39 37 34 34 30 29 25 17 18 19 16 14 11 9 14 17 16 17 18 20 20 21 20 19 18 17
25 36 35 34 40 45 27 20 16 28 50 35 37 37 36 36 46 43 35 37 36 34 36 35 33 27 18 20 20 18 17 15 15 18 16 15 17 19 20 20 20 19 17 16
30 29 37 41 41 41 43 38 35 42 41 30 30 35 39 40 41 43 41 40 38 38 38 34 33 33 33 24 23 25 22 21 19 17 18 16 17 18 19 19 19 18 16 16
39 32 34 33 36 43 21 21 28 31 37 37 36 36 37 40 38 39 40 41 41 39 40 37 40 37 35 38 29 30 29 24 20 19 19 18 17 18 19 20 19 17 17 17
38 27 28 29 34 40 40 35 34 33 36 35 34 35 37 38 37 39 40 39 40 44 42 39 39 39 38 37 37 33 31 25 22 21 22 22 21 22 21 22 21 20 18 20
33 31 29 32 45 46 43 42 38 38 38 42 39 41 39 43 40 41 39 40 41 42 43 42 42 42 40 38 32 29 28 26 24 24 23 24 24 23 24 24 23 23 23 22
38 37 37 39 43 42 44 43 40 41 40 45 44 44 44 43 44 44 44 42 43 42 43 43 45 45 44 41 37 29 29 29 27 25 26 25 26 26 26 25 25 25 24 23
37 41 40 43 39 38 39 36 37 35 36 39 43 44 45 45 47 48 48 46 44 46 46 47 50 48 45 43 41 38 29 30 31 29 28 27 27 28 28 27 25 23 23 22
Wind_Direction
235 236 235 234 235 241 246 248 250 254 256 252 257 260 260 259 261 263 259 251 252 240 229 224 223 224 207 208 197 192 198 202 203 202 203 210 218 241 243 237 228 225 218 212
239 235 235 237 239 242 244 248 250 254 254 255 258 259 262 259 258 260 264 261 250 243 236 226 228 221 212 206 199 200 203 204 209 214 213 225 223 236 240 248 239 232 213 204
238 234 235 238 239 239 242 243 248 252 253 255 258 260 261 257 257 261 261 263 256 251 238 231 221 222 216 212 202 205 205 212 211 214 228 231 237 241 232 227 228 226 218 216
246 241 237 238 241 239 242 243 249 251 252 254 252 258 256 257 257 260 261 261 249 248 257 235 233 237 221 213 210 216 216 213 216 216 222 216 226 228 232 229 238 236 231 232
246 240 238 237 238 240 245 247 246 251 254 256 253 259 256 256 254 256 259 258 254 248 245 244 249 242 241 221 223 227 224 223 220 221 226 229 232 235 238 234 229 235 237 234
254 250 247 243 247 245 249 251 253 253 252 252 252 253 256 250 258 259 256 253 255 252 248 252 249 243 235 233 228 228 230 224 221 222 228 229 227 233 233 226 225 229 232 233
249 252 252 249 247 245 246 242 245 248 247 252 247 249 253 254 250 263 263 261 249 240 246 240 238 238 239 242 227 225 223 223 220 220 226 233 229 235 233 226 226 222 227 231
241 247 250 248 241 239 240 238 238 240 243 245 247 248 243 227 258 268 281 231 257 262 255 243 242 235 239 236 241 232 225 224 224 222 223 228 235 235 242 229 230 226 231 232
239 242 253 251 245 239 241 241 236 250 251 253 251 253 252 250 250 252 259 263 269 260 264 259 257 254 248 243 245 230 228 222 222 223 225 229 235 233 239 231 230 230 232 232
249 243 247 253 249 245 241 244 239 237 244 245 246 245 250 250 251 258 252 241 261 261 262 261 261 264 263 253 255 238 231 226 227 228 227 229 228 233 237 230 230 229 230 227
260 241 246 245 244 243 244 241 241 244 243 241 247 247 222 262 265 260 258 262 268 255 263 266 264 260 269 255 251 236 232 229 234 238 231 227 226 231 230 231 229 228 227 225
265 246 242 248 256 250 247 248 246 240 238 245 247 256 255 269 265 262 261 252 258 262 268 263 266 262 260 259 253 237 229 228 232 238 227 223 227 229 229 230 226 226 224 220
272 248 240 243 247 264 254 257 255 246 247 234 240 248 257 282 292 293 257 264 273 259 281 263 258 256 257 261 259 253 238 238 245 235 221 220 226 224 227 226 225 220 218 218
284 254 245 240 248 258 258 263 259 251 244 247 236 243 260 269 280 314 283 265 264 275 275 272 265 264 263 262 257 252 246 247 248 242 226 217 222 226 225 222 222 218 215 216
280 263 250 250 252 255 262 260 257 251 251 248 243 241 239 277 268 275 281 278 271 271 265 266 269 271 269 266 260 254 257 257 255 239 225 216 228 226 223 218 219 217 218 218
274 269 262 253 254 255 256 259 259 257 254 254 251 250 250 260 257 258 280 277 279 279 266 267 268 268 272 270 265 263 265 255 251 241 230 221 222 223 222 217 217 220 220 217
270 275 269 258 262 259 256 254 255 256 253 251 248 249 251 256 248 254 267 273 275 277 284 268 267 265 270 271 271 272 272 263 249 243 236 228 219 217 211 213 213 215 218 218
265 268 272 261 268 252 260 267 259 256 255 252 253 254 252 254 252 257 262 268 269 276 278 283 268 265 269 275 274 275 274 270 256 249 241 232 224 219 217 217 214 216 215 219
259 260 265 261 260 264 267 268 262 257 257 262 258 257 256 258 258 257 262 260 269 272 279 276 284 271 270 274 276 271 268 270 266 254 241 233 223 219 215 214 215 215 216 221
274 257 258 263 261 255 266 283 274 274 258 266 267 264 262 264 257 261 275 278 272 273 266 278 272 275 268 270 273 269 265 269 266 258 241 226 221 216 211 212 209 214 218 224
274 267 258 259 263 266 261 270 276 265 261 277 275 272 269 265 268 270 275 279 279 279 276 271 283 271 268 270 264 264 264 266 263 253 248 234 222 215 210 208 210 213 217 218
263 272 268 268 265 260 275 291 270 280 271 273 273 275 274 272 278 277 277 276 277 276 278 270 268 276 276 273 270 264 261 265 259 248 239 231 222 221 219 212 217 213 215 222
265 274 276 274 274 267 280 290 293 292 284 279 278 276 277 274 274 274 274 275 277 269 272 272 271 275 276 273 273 263 260 256 256 247 239 232 228 226 218 219 220 214 218 219
280 283 280 282 249 260 275 279 287 286 286 282 288 283 283 277 280 280 278 276 276 273 270 271 270 269 273 278 281 265 257 250 249 247 242 235 227 225 226 227 226 225 223 222
278 282 282 280 272 280 276 281 286 288 290 282 283 282 282 281 279 275 274 274 276 277 273 271 270 270 271 275 278 279 258 249 244 244 241 237 233 227 227 229 229 227 225 219
284 278 279 278 284 287 286 289 289 290 292 292 287 285 281 280 278 276 274 275 274 273 274 272 271 272 273 272 272 273 268 245 242 243 241 239 237 234 234 233 237 241 237 229